Hourly Weather Rudawa

Today, 16 April, Friday

Time Temperature Precipitation Wind Pressure Humidity
00:00 0°C° 0.1 mm 3 mps 740 mmHg 98%
01:00 0°C° 0 mm 3 mps 739 mmHg 98%
02:00 0°C° 0.2 mm 3 mps 739 mmHg 98%
03:00 0°C° 0.2 mm 3 mps 739 mmHg 98%
04:00 -1°C° 0.2 mm 4 mps 739 mmHg 98%
05:00 -1°C° 0.3 mm 4 mps 739 mmHg 98%
06:00 -1°C° 0.3 mm 4 mps 739 mmHg 98%
07:00 -1°C° 0.3 mm 4 mps 739 mmHg 98%
08:00 -1°C° 0.2 mm 5 mps 739 mmHg 98%
09:00 -1°C° 0.2 mm 5 mps 739 mmHg 98%
10:00 -1°C° 0.2 mm 5 mps 739 mmHg 98%
11:00 -1°C° 0.2 mm 5 mps 739 mmHg 98%
12:00 -1°C° 0.2 mm 5 mps 740 mmHg 98%
13:00 -1°C° 0.2 mm 5 mps 740 mmHg 98%
14:00 -1°C° 0.6 mm 5 mps 740 mmHg 98%
15:00 -1°C° 0.6 mm 5 mps 740 mmHg 98%
16:00 -1°C° 0.6 mm 5 mps 740 mmHg 98%
17:00 -1°C° 0.5 mm 4 mps 740 mmHg 98%
18:00 -1°C° 0.5 mm 4 mps 740 mmHg 98%
19:00 -1°C° 0.5 mm 4 mps 740 mmHg 99%
20:00 -1°C° 0.7 mm 4 mps 740 mmHg 99%
21:00 -1°C° 0.7 mm 4 mps 740 mmHg 99%
22:00 0°C° 0.7 mm 3 mps 740 mmHg 99%
23:00 0°C° 0.6 mm 3 mps 740 mmHg 99%

Tomorrow, 17 April, Saturday

Time Temperature Precipitation Wind Pressure Humidity
00:00 0°C° 0.6 mm 3 mps 740 mmHg 99%
01:00 0°C° 0.6 mm 3 mps 740 mmHg 99%
02:00 +1°C° 0.2 mm 3 mps 740 mmHg 99%
03:00 +1°C° 0.2 mm 3 mps 739 mmHg 99%
04:00 +2°C° 0.2 mm 2 mps 739 mmHg 99%
05:00 +2°C° 0.1 mm 2 mps 739 mmHg 99%
06:00 +2°C° 0.1 mm 2 mps 740 mmHg 99%
07:00 +2°C° 0.1 mm 2 mps 740 mmHg 99%
08:00 +2°C° 0 mm 2 mps 740 mmHg 99%
09:00 +3°C° 0 mm 2 mps 740 mmHg 99%
10:00 +3°C° 0 mm 2 mps 740 mmHg 99%
11:00 +3°C° 0 mm 2 mps 740 mmHg 99%
12:00 +3°C° 0 mm 2 mps 740 mmHg 99%
13:00 +3°C° 0 mm 2 mps 740 mmHg 99%
14:00 +3°C° 0 mm 2 mps 740 mmHg 99%
15:00 +3°C° 0 mm 2 mps 740 mmHg 99%
16:00 +3°C° 0 mm 2 mps 740 mmHg 99%
17:00 +4°C° 0 mm 1 mps 740 mmHg 99%
18:00 +4°C° 0 mm 1 mps 740 mmHg 99%
19:00 +4°C° 0 mm 1 mps 740 mmHg 99%
20:00 +4°C° 0 mm 1 mps 740 mmHg 99%
21:00 +4°C° 0 mm 1 mps 740 mmHg 99%
22:00 +3°C° 0 mm 0 mps 740 mmHg 99%
23:00 +3°C° 0 mm 0 mps 740 mmHg 99%

Day after tomorrow, 18 April, Sunday

Time Temperature Precipitation Wind Pressure Humidity
00:00 +3°C° 0 mm 0 mps 740 mmHg 99%
01:00 +3°C° 0 mm 0 mps 740 mmHg 99%
02:00 +3°C° 0 mm 0 mps 740 mmHg 99%
03:00 +3°C° 0 mm 0 mps 740 mmHg 99%
04:00 +4°C° 0 mm 1 mps 740 mmHg 99%
05:00 +4°C° 0 mm 1 mps 740 mmHg 98%
06:00 +4°C° 0 mm 1 mps 740 mmHg 98%
07:00 +4°C° 0 mm 2 mps 740 mmHg 97%
08:00 +5°C° 0 mm 2 mps 740 mmHg 92%
09:00 +6°C° 0 mm 2 mps 740 mmHg 87%
10:00 +7°C° 0 mm 3 mps 740 mmHg 82%
11:00 +7°C° 0 mm 3 mps 739 mmHg 80%
12:00 +8°C° 0 mm 3 mps 739 mmHg 77%
13:00 +8°C° 0 mm 3 mps 739 mmHg 75%
14:00 +8°C° 0 mm 3 mps 739 mmHg 76%
15:00 +8°C° 0 mm 3 mps 739 mmHg 77%
16:00 +8°C° 0 mm 2 mps 739 mmHg 79%
17:00 +8°C° 0 mm 2 mps 739 mmHg 80%
18:00 +8°C° 0 mm 1 mps 739 mmHg 82%
19:00 +7°C° 0 mm 0 mps 739 mmHg 83%
20:00 +7°C° 0 mm 1 mps 739 mmHg 85%
21:00 +7°C° 0 mm 1 mps 739 mmHg 86%
22:00 +6°C° 0 mm 1 mps 739 mmHg 87%
23:00 +6°C° 0 mm 1 mps 738 mmHg 88%

19 April, Monday

Time Temperature Precipitation Wind Pressure Humidity
00:00 +6°C° 0 mm 1 mps 738 mmHg 89%
01:00 +6°C° 0 mm 1 mps 738 mmHg 90%
02:00 +6°C° 0 mm 1 mps 738 mmHg 91%
03:00 +6°C° 0 mm 1 mps 738 mmHg 91%
04:00 +6°C° 0 mm 1 mps 738 mmHg 92%
05:00 +6°C° 0 mm 1 mps 737 mmHg 91%
06:00 +6°C° 0 mm 2 mps 737 mmHg 90%
07:00 +7°C° 0 mm 2 mps 737 mmHg 89%
08:00 +8°C° 0.1 mm 2 mps 737 mmHg 87%
09:00 +9°C° 0.1 mm 3 mps 737 mmHg 85%
10:00 +8°C° 0.1 mm 4 mps 737 mmHg 82%
11:00 +8°C° 0.1 mm 4 mps 737 mmHg 83%
12:00 +8°C° 0.1 mm 4 mps 737 mmHg 84%
13:00 +8°C° 0.1 mm 4 mps 736 mmHg 86%
14:00 +8°C° 0.2 mm 4 mps 736 mmHg 85%
15:00 +8°C° 0.2 mm 4 mps 736 mmHg 85%
16:00 +8°C° 0.2 mm 4 mps 736 mmHg 85%
17:00 +8°C° 0 mm 3 mps 736 mmHg 87%
18:00 +7°C° 0 mm 2 mps 736 mmHg 89%
19:00 +7°C° 0 mm 2 mps 736 mmHg 91%
20:00 +6°C° 0 mm 2 mps 736 mmHg 92%
21:00 +7°C° 0 mm 1 mps 736 mmHg 92%
22:00 +7°C° 0 mm 1 mps 736 mmHg 92%
23:00 +7°C° 0 mm 1 mps 736 mmHg 92%

20 April, Tuesday

Time Temperature Precipitation Wind Pressure Humidity
00:00 +7°C° 0 mm 1 mps 736 mmHg 92%
01:00 +7°C° 0 mm 1 mps 735 mmHg 92%
02:00 +6°C° 0 mm 1 mps 735 mmHg 92%
03:00 +6°C° 0 mm 1 mps 735 mmHg 92%
04:00 +6°C° 0 mm 1 mps 735 mmHg 92%
05:00 +7°C° 0.1 mm 1 mps 735 mmHg 89%
06:00 +7°C° 0.1 mm 1 mps 735 mmHg 87%
07:00 +8°C° 0.1 mm 1 mps 735 mmHg 84%
08:00 +9°C° 0.2 mm 1 mps 735 mmHg 78%
09:00 +9°C° 0.2 mm 2 mps 735 mmHg 72%
10:00 +10°C° 0.2 mm 2 mps 735 mmHg 66%
11:00 +10°C° 0.1 mm 3 mps 735 mmHg 65%
12:00 +10°C° 0.1 mm 4 mps 735 mmHg 64%
13:00 +10°C° 0.1 mm 4 mps 735 mmHg 63%
14:00 +10°C° 0 mm 4 mps 735 mmHg 64%
15:00 +10°C° 0 mm 4 mps 735 mmHg 64%
16:00 +10°C° 0 mm 4 mps 735 mmHg 64%
17:00 +9°C° 0 mm 3 mps 735 mmHg 68%
18:00 +8°C° 0 mm 2 mps 735 mmHg 72%
19:00 +8°C° 0 mm 1 mps 735 mmHg 76%
20:00 +8°C° 0 mm 1 mps 735 mmHg 77%
21:00 +7°C° 0 mm 1 mps 735 mmHg 78%
22:00 +7°C° 0 mm 1 mps 735 mmHg 80%
23:00 +7°C° 0 mm 1 mps 735 mmHg 81%

21 April, Wednesday

Time Temperature Precipitation Wind Pressure Humidity
00:00 +6°C° 0 mm 1 mps 735 mmHg 83%
01:00 +6°C° 0 mm 1 mps 735 mmHg 85%
02:00 +5°C° 0 mm 1 mps 735 mmHg 86%
03:00 +4°C° 0 mm 2 mps 735 mmHg 88%
04:00 +3°C° 0 mm 2 mps 735 mmHg 89%
05:00 +4°C° 0 mm 2 mps 735 mmHg 84%
06:00 +6°C° 0 mm 2 mps 735 mmHg 80%
07:00 +7°C° 0 mm 2 mps 735 mmHg 75%
08:00 +8°C° 0 mm 2 mps 735 mmHg 69%
09:00 +10°C° 0 mm 2 mps 735 mmHg 63%
10:00 +12°C° 0 mm 2 mps 735 mmHg 57%
11:00 +13°C° 0 mm 2 mps 735 mmHg 53%
12:00 +14°C° 0 mm 2 mps 735 mmHg 50%
13:00 +13°C° 0 mm 3 mps 735 mmHg 46%
14:00 +14°C° 0 mm 2 mps 735 mmHg 47%
15:00 +14°C° 0 mm 2 mps 735 mmHg 49%
16:00 +14°C° 0 mm 2 mps 735 mmHg 50%
17:00 +13°C° 0 mm 2 mps 735 mmHg 55%
18:00 +12°C° 0 mm 1 mps 735 mmHg 59%
19:00 +10°C° 0 mm 1 mps 735 mmHg 64%
20:00 +9°C° 0 mm 1 mps 735 mmHg 67%
21:00 +9°C° 0 mm 1 mps 735 mmHg 70%
22:00 +8°C° 0 mm 1 mps 735 mmHg 72%
23:00 +8°C° 0 mm 1 mps 735 mmHg 74%
Show more